Regional Weather Roundup
Issued by NWS

Home | Current Version | Previous Version | Text Only | Print | Product List | Glossary Off
Versions: 1 2 3 4 5 6 7 8 9 10 11 12 13 14 15 16 17 18 19 20 21 22 23 24 25 26 27 28 29 30 31 32 33 34 35 36 37 38 39 40 41 42 43 44 45 46 47 48 49 50

000
ASUS44 KMEG 261100
RWRTN
TENNESSEE HOURLY STATE WEATHER ROUNDUP
NATIONAL WEATHER SERVICE MEMPHIS TN
500 AM CST FRI DEC 26 2014

TNZ002-004-019-021-049-052-054-088>092-261200-
WEST TENNESSEE

CITY           SKY/WX    TMP DP  RH WIND       PRES   REMARKS
MEMPHIS INTL   CLOUDY    43  35  73 S8        30.18S
NWS MEMPHIS      N/A     40 N/A N/A MISG        N/A
JACKSON        CLOUDY    42  34  73 S8        30.22R
DYERSBURG      MOCLDY    39  27  60 S8        30.21R WCI  34
UNION CITY     CLEAR     36  36 100 S12       30.17S WCI  27
PARIS          CLEAR     34  32  93 SE7       30.21R WCI  28
LEXINGTON      CLEAR     34  32  93 CALM      30.22R
SAVANNAH       CLEAR     36  36 100 SE5       30.25R WCI  32
$$

TNZ008-025-027-028-033-062-065-066-261200-
NORTH MIDDLE TENNESSEE

CITY           SKY/WX    TMP DP  RH WIND       PRES   REMARKS
NASHVILLE      PTCLDY    33  31  92 SE5       30.26R WCI  29
CLARKSVILLE    PTCLDY    33  31  92 SE5       30.23S WCI  29
COOKEVILLE     CLEAR     27  27 100 CALM      30.25R
CROSSVILLE     PTCLDY    30  27  88 CALM      30.25R
$$

TNZ061-075-076-078-094-096-097-261200-
SOUTH MIDDLE TENNESSEE

CITY           SKY/WX    TMP DP  RH WIND       PRES   REMARKS
FAYETTEVILLE   CLEAR     30  30 100 MISG      30.26R
TULLAHOMA      CLEAR     28  27  93 CALM      30.26R
WINCHESTER     CLEAR     28  28 100 CALM      30.27R
SHELBYVILLE    CLEAR     30  30 100 CALM      30.27R
$$

TNZ017-018-042-046-047-261200-
NORTHEAST TENNESSEE

CITY           SKY/WX    TMP DP  RH WIND       PRES   REMARKS
TRI CITIES     PTCLDY    25  23  92 CALM      30.29R
ELIZABETHTON   SUNNY     23  21  93 CALM      30.28S
$$

TNZ012-013-036-069-073-074-261200-
CENTRAL EAST TENNESSEE

CITY           SKY/WX    TMP DP  RH WIND       PRES   REMARKS
KNOXVILLE      PTCLDY    28  28 100 CALM      30.29R
OAK RIDGE      FOG       30  29  96 CALM      30.31R VSB 1/4
GATLINBURG     SUNNY     25  25 100 CALM      30.29S
$$

TNZ083-085-099-261200-
SOUTHEAST TENNESSEE

CITY           SKY/WX    TMP DP  RH WIND       PRES   REMARKS
CHATTANOOGA    FOG       33  32  96 CALM      30.30R VSB<1/4
$$

SKY/WX REPORTED AS FAIR MEANS FEW OR NO CLOUDS BELOW
12 THOUSAND FEET.



USA.gov is the U.S. government's official web portal to all federal, state and local government web resources and services.